Bowling Green, Kentucky, United States (42101)
Lat: 36.99N, Lon: 86.44W
Wx Zone: KYZ071
Local Info
Past Weather Observations for Today

NOTE: This archive is for the closest National Weather Service station to Bowling Green. Information may differ from the station used for current weather conditions.

Click here for Long-term Archive

Time Weather Temperature Dewpoint Humidity Pressure Winds Precip Visibility
19:55
Clear
N/A N/A N/A 30.01 in
(1016 mb)
Calm - 10SM
19:35
Clear
N/A N/A N/A 30.01 in
(1016 mb)
Calm - 10SM
19:15
Clear
N/A N/A N/A 30.01 in
(1016 mb)
Calm - 10SM
18:55
Clear
N/A N/A N/A 29.98 in
(1015 mb)
N 3.5 mph
(N 6 kph)
- 10SM
18:35
Clear
N/A N/A N/A 29.98 in
(1015 mb)
Calm - 10SM
18:15
Clear
N/A N/A N/A 29.98 in
(1015 mb)
Calm - 10SM
17:55
Clear
N/A N/A N/A 29.98 in
(1015 mb)
NNW 3.5 mph
(NNW 6 kph)
- 10SM
17:35
Clear
N/A N/A N/A 29.98 in
(1015 mb)
NNW 5.8 mph
(NNW 9 kph)
- 10SM
17:15
Clear
N/A N/A N/A 29.98 in
(1015 mb)
NNW 6.9 mph
(NNW 11 kph)
- 10SM
16:55
Clear
N/A N/A N/A 29.98 in
(1015 mb)
NNW 8.1 mph
(NNW 13 kph)
- 10SM
16:35
Clear
N/A N/A N/A 29.98 in
(1015 mb)
NNW 8.1 mph
(NNW 13 kph)
- 10SM
16:15
Clear
N/A N/A N/A 29.98 in
(1015 mb)
N 4.6 mph
(N 7 kph)
- 10SM
15:55
Clear
N/A N/A N/A 29.98 in
(1015 mb)
NNW 8.1 mph
(NNW 13 kph)
- 10SM
15:35
Clear
N/A N/A N/A 29.98 in
(1015 mb)
Calm - 10SM
15:15
Clear
N/A N/A N/A 29.98 in
(1015 mb)
NNW 6.9 mph
(NNW 11 kph)
- 10SM
14:55
Clear
N/A N/A N/A 29.98 in
(1015 mb)
N 8.1 mph
(N 13 kph)
- 10SM
14:35
Partly Cloudy
N/A N/A N/A 30.01 in
(1016 mb)
N 5.8 mph
(N 9 kph)
- 10SM
14:15
Mostly Cloudy
N/A N/A N/A 30.01 in
(1016 mb)
NNW 6.9 mph
(NNW 11 kph)
- 10SM
13:55
Partly Cloudy
N/A N/A N/A 30.01 in
(1016 mb)
NW 4.6 mph
(NW 7 kph)
- 10SM
13:35
Mostly Cloudy
N/A N/A N/A 30.01 in
(1016 mb)
NW 4.6 mph
(NW 7 kph)
- 10SM
13:15
Mostly Cloudy
N/A N/A N/A 30.01 in
(1016 mb)
NNW 6.9 mph
(NNW 11 kph)
- 10SM
12:55
Partly Cloudy
N/A N/A N/A 30.01 in
(1016 mb)
NW 6.9 mph
(NW 11 kph)
- 10SM
12:35
Partly Cloudy
N/A N/A N/A 30.01 in
(1016 mb)
N 8.1 mph
(N 13 kph)
- 10SM
12:15
Partly Cloudy
N/A N/A N/A 30.01 in
(1016 mb)
NW 9.2 mph
(NW 15 kph)
- 10SM
11:55
Partly Cloudy
N/A N/A N/A 30.01 in
(1016 mb)
NW 5.8 mph
(NW 9 kph)
- 10SM
11:35
Partly Cloudy
N/A N/A N/A 30.04 in
(1017 mb)
W 4.6 mph
(W 7 kph)
- 10SM
11:15
Partly Cloudy
N/A N/A N/A 30.04 in
(1017 mb)
Calm - 10SM
10:55
Partly Cloudy
N/A N/A N/A 30.04 in
(1017 mb)
NW 3.5 mph
(NW 6 kph)
- 10SM
10:35
Partly Cloudy
N/A N/A N/A 30.04 in
(1017 mb)
Calm - 10SM
10:15
Clear
N/A N/A N/A 30.04 in
(1017 mb)
NW 3.5 mph
(NW 6 kph)
- 10SM
09:55
Clear
N/A N/A N/A 30.04 in
(1017 mb)
Calm - 10SM
09:35
Clear
N/A N/A N/A 30.04 in
(1017 mb)
NW 3.5 mph
(NW 6 kph)
- 10SM
09:15
Clear
N/A N/A N/A 30.04 in
(1017 mb)
N 3.5 mph
(N 6 kph)
- 10SM
08:55
Clear
N/A N/A N/A 30.04 in
(1017 mb)
NNW 3.5 mph
(NNW 6 kph)
- 10SM
08:35
Clear
N/A N/A N/A 30.04 in
(1017 mb)
NNW 3.5 mph
(NNW 6 kph)
- 10SM
08:15
Clear
N/A N/A N/A 30.04 in
(1017 mb)
Calm - 10SM
07:55
Clear
N/A N/A N/A 30.04 in
(1017 mb)
Calm - 10SM
07:35
Clear
N/A N/A N/A 30.06 in
(1018 mb)
Calm - 10SM
07:15
Clear
N/A N/A N/A 30.06 in
(1018 mb)
Calm - 10SM
06:55
Clear
N/A N/A N/A 30.06 in
(1018 mb)
Calm - 10SM
06:35
Clear
N/A N/A N/A 30.04 in
(1017 mb)
Calm - 10SM
06:15
Clear
N/A N/A N/A 30.04 in
(1017 mb)
Calm - 10SM
05:55
Clear
N/A N/A N/A 30.04 in
(1017 mb)
Calm - 10SM
05:35
Mostly Cloudy
N/A N/A N/A 30.04 in
(1017 mb)
Calm - 10SM
05:15
Mostly Cloudy
N/A N/A N/A 30.04 in
(1017 mb)
Calm - 10SM
04:55
Clear
Hazy
N/A N/A N/A 30.04 in
(1017 mb)
Calm - 4SM
04:35
Clear
N/A N/A N/A 30.01 in
(1016 mb)
Calm - 7SM
04:15
Clear
N/A N/A N/A 30.01 in
(1016 mb)
Calm - 7SM
03:55
Clear
Hazy
N/A N/A N/A 30.01 in
(1016 mb)
Calm - 5SM
03:35
Clear
N/A N/A N/A 30.01 in
(1016 mb)
Calm - 10SM
03:15
Clear
N/A N/A N/A 30.01 in
(1016 mb)
Calm - 10SM
02:55
Clear
N/A N/A N/A 30.01 in
(1016 mb)
Calm - 7SM
02:35
Clear
N/A N/A N/A 30.01 in
(1016 mb)
Calm - 10SM
02:15
Clear
N/A N/A N/A 30.04 in
(1017 mb)
Calm - 7SM
01:55
Clear
N/A N/A N/A 30.04 in
(1017 mb)
Calm - 7SM
01:35
Clear
N/A N/A N/A 30.04 in
(1017 mb)
Calm - 10SM
01:15
Clear
N/A N/A N/A 30.04 in
(1017 mb)
Calm - 10SM
00:55
Clear
N/A N/A N/A 30.04 in
(1017 mb)
Calm - 7SM
00:35
Clear
N/A N/A N/A 30.04 in
(1017 mb)
Calm - 10SM
00:15
Clear
Hazy
N/A N/A N/A 30.04 in
(1017 mb)
Calm - 5SM
Time Weather Temperature Dewpoint Humidity Pressure Winds Precip Visibility


Weather for websites

WeatherForYou.com, LLC is not responsible for any damages or problems caused by this service. Current weather conditions are obtained from the closest station including government and personal stations which may have varying degrees of accuracy. Weather forecasts are derived from the NOAA NDFD. Like all things, this site belongs to Jesus Christ... He just trusts us to maintain it. If you have any questions or comments email webmaster@weatherforyou.com

Copyright © 2015, WeatherForYou.com LLC. All rights reserved.